Current weather by "City, St" or "zip code"  
 

Current Conditions: Bennington Morse State Airport, VT

Fair


62.0 F

Last Updated on May 21 2022, 3:54 am EDT
Humidity: 93%
Wind Speed: NW 4.6 mph
Barometer 29.91 in
Dewpoint: 60.1 F
Visibility: 10.00 mi
Precip: --
Heat Index: NA
Wind Chill: 62 F
Current conditions at:

Bennington Morse State Airport, VT (KDDH)

Lat: 42.89355 Lon: 73.2486

Local Radar Image active severe weather and emergency alerts image image weather storm and storm spotter reports image weather observation monitoring service image
Local
Radar
Active
Alerts
Storm Reports Obs
Monitoring

Sign-up For Email & Text Message Weather Alert Notification Services



Advertise Here

Observation History for Bennington Morse State Airport, VT


Time Wind
(mph)
Vis
(mi)
Weather Precip (in) Temperature (F) Relative
Humidity
Wind
Chill
(F)
Heat
Index
(F)
Pressure
Air Dwpt altimeter
(in)
sea level
(mb)
Rmks
3:54 am EDT NW 4.6 10.00 Fair -- 62.0 60.1 93% 62 NA 29.91 1012.3
2:54 am EDT N 0.0 10.00 Fair -- 63.0 60.1 90% NA NA 29.91 1012.4
12:54 am EDT 4.6 10.00 Overcast -- 68.0 60.1 76% NA NA 29.93 1013.0
10:54 pm EDT SE 8.1 10.00 Mostly Cloudy -- 68.0 59.0 73% NA NA 29.94 1013.3
9:54 pm EDT S 8.1 10.00 Overcast -- 69.0 59.0 70% NA NA 29.92 1012.9
8:54 pm EDT S 9.2 G 19.6 10.00 Overcast -- 70.0 57.9 66% NA NA 29.92 1012.9
6:54 pm EDT S 23.0 G 29.9 10.00 Mostly Cloudy and Breezy -- 75.0 55.9 52% NA NA 29.87 1011.4
4:54 pm EDT S 17.3 G 24.2 10.00 A Few Clouds -- 77.0 55.9 48% NA NA 29.88 1011.8
3:54 pm EDT S 11.5 G 24.2 10.00 A Few Clouds -- 79.0 55.9 45% NA NA 29.88 1011.7
2:54 pm EDT S 17.3 G 27.6 10.00 NULL -- 78.0 55.9 47% NA NA 29.90 1012.4
1:54 pm EDT S 9.2 10.00 Fair -- 78.0 57.0 48% NA NA 29.90 1012.3
11:54 am EDT S 5.8 10.00 Fair -- 73.0 55.0 53% NA NA 29.94 1013.6
10:54 am EDT SW 6.9 10.00 Mostly Cloudy -- 68.0 54.0 61% NA NA 29.95 1014.0
9:54 am EDT N 0.0 10.00 A Few Clouds -- 64.0 55.9 75% NA NA 29.95 1013.9
8:54 am EDT N 0.0 10.00 Overcast -- 58.0 53.1 84% NA NA 29.96 1014.4
7:54 am EDT N 0.0 10.00 Mostly Cloudy -- 50.0 48.9 96% NA NA 29.94 1013.8
5:54 am EDT N 0.0 1.00 Fog/Mist -- 44.0 43.0 96% NA NA 29.90 1012.6

Regional Weather Observation


Bennington Morse State Airport, VT (KDDH)

Fair
62.0 F

Schenectady Airport, NY (KSCH)

Mostly Cloudy
68.0 F

Albany International Airport, NY (KALB)

Overcast
66.0 F

North Adams Harriman-and-West Airport, MA (KAQW)

Fair
64.0 F

Pittsfield Municipal Airport, MA (KPSF)

Overcast
63.0 F

Rutland-Southern Vermont Regional Airport, VT (KRUT)

Mostly Cloudy
65.0 F

Advertise Here


Advertise Here